LILACSAT-2

Last updated on Mon Jun 22 2026 00:03:18 GMT+0000 (Coordinated Universal Time)

1 40908U 15049K 26172.52898664 .00014906 00000+0 25303-3 0 9991 2 40908 97.4642 209.5359 0005819 224.7343 135.3440 15.51567178596428
UTC large
Height (km)
Speed (km/s)
/
Latitude / Longitude
Inclination (degrees)
Orbital Period (minutes)
Azimuth
Elevation
Range (km)
Doppler Factor

Next 0 passes for location: London (51.5072 / 0.1276)

No passes found over London.
LILACSAT-2